• Join FlightAware (Why Join?)
  • Login
  • US Flag GB Flag 
00:37 EDT


 

Airport Tracker/Info


-or-


 

Live Flight TrackerFlight Track Log ✈ N27XP ✈ 16-May-2014 ✈ KMMU - KSOP

Flight Track Log - Related Links

Times and Time Zones

All times are in EDT time to prevent confusion due to time zone crossing. See the N27XP flight status page for this flight to view local times or setup timezone preferences in your user account.

Time Position Orientation Groundspeed Altitude Reporting Facility
EDT Latitude Longitude Course Direction KTS MPH feet Rate Location/Type
13:22 40.7500 -74.4333 162° South 165 190 2,700  Level New York TRACON
13:23 40.7000 -74.4333 180° South 197 227 4,100 1,560 Climbing New York TRACON
13:24 40.6500 -74.3667 135° Southeast 242 278 5,900 960 Climbing New York TRACON
13:24 40.6167 -74.3333 143° Southeast 238 274 6,000  Climbing New York TRACON
13:26 40.5500 -74.3000 159° South 227 261 6,000  Level New York TRACON
13:27 40.4316 -74.7748 162° South  Level Estimated
13:27 40.4833 -74.2667 159° South 223 257 6,000  Level New York TRACON
13:29 40.3739 -74.2172 161° South 210 242 10,900 2,160 Climbing New York Center
13:30 40.2639 -74.2267 184° South 224 258 14,500 2,220 Climbing Washington Center
13:31 40.1933 -74.2336 184° South 240 276 17,000 2,160 Climbing Washington Center
13:32 40.1225 -74.2403 184° South 252 290 18,900 1,740 Climbing Washington Center
13:33 40.0475 -74.2472 184° South 257 296 20,600 1,800 Climbing Washington Center
13:34 39.9750 -74.2811 200° South 271 312 22,600 1,920 Climbing Washington Center
13:35 39.9111 -74.3444 217° Southwest 280 322 24,500 1,680 Climbing Washington Center
13:36 39.8453 -74.4078 216° Southwest 290 334 26,000 1,500 Climbing Washington Center
13:37 39.7833 -74.4764 220° Southwest 300 345 27,500 1,440 Climbing Washington Center
13:38 39.7256 -74.5556 227° Southwest 300 345 28,900 1,440 Climbing Washington Center
13:39 39.6658 -74.6319 225° Southwest 300 345 30,400 1,380 Climbing Washington Center
13:40 39.6061 -74.7081 224° Southwest 300 345 31,700 1,200 Climbing Washington Center
13:41 39.5483 -74.7869 226° Southwest 305 351 32,900 1,080 Climbing Washington Center
13:42 39.4842 -74.8736 226° Southwest 305 351 33,900 1,080 Climbing Washington Center
13:43 39.4222 -74.9547 225° Southwest 305 351 35,100 1,080 Climbing Washington Center
13:44 39.3622 -75.0306 224° Southwest 300 345 36,100 960 Climbing Washington Center
13:45 39.3019 -75.1061 224° Southwest 305 351 37,000 900 Climbing Washington Center
13:46 39.2231 -75.1442 200° South 305 351 37,900 480 Climbing Washington Center
13:47 39.1419 -75.1822 200° South 299 344 38,000  Climbing Washington Center
13:48 39.0586 -75.2175 198° South 311 358 38,000  Level Washington Center
13:49 38.9692 -75.2525 197° South 328 377 38,000 -60 Level Washington Center
13:50 38.8794 -75.2931 199° South 334 384 37,900  Descending Washington Center
13:51 38.7983 -75.3600 213° Southwest 339 390 38,000  Climbing Washington Center
13:52 38.7150 -75.4267 212° Southwest 352 405 38,000  Level Washington Center
13:53 38.6339 -75.4933 213° Southwest 357 411 38,000 -60 Level Washington Center
13:54 38.5525 -75.5597 213° Southwest 357 411 37,900  Descending Washington Center
13:55 38.4714 -75.6289 214° Southwest 357 411 38,000  Climbing Washington Center
13:56 38.3878 -75.6897 210° Southwest 357 411 38,000  Level Washington Center
13:57 38.3086 -75.7583 214° Southwest 357 411 38,000  Level Washington Center
13:58 38.2250 -75.8217 211° Southwest 357 411 38,000  Level Washington Center
13:59 38.1436 -75.8847 211° Southwest 352 405 38,000 -120 Level Washington Center
14:00 38.0619 -75.9531 213° Southwest 352 405 37,800 -1,080 Descending Washington Center
14:01 37.9742 -76.0211 211° Southwest 357 411 35,900 -1,920 Descending Washington Center
14:02 37.8947 -76.0864 213° Southwest 357 411 34,100 -1,920 Descending Washington Center
14:03 37.8236 -76.1675 222° Southwest 357 411 32,200 -1,980 Descending Washington Center
14:04 37.7500 -76.2536 223° Southwest 357 411 30,200 -2,040 Descending Washington Center
14:05 37.6725 -76.3422 222° Southwest 367 422 28,200 -2,040 Descending Washington Center
14:06 37.5883 -76.4225 217° Southwest 379 436 26,100 -2,100 Descending Washington Center
14:07 37.4942 -76.4869 209° Southwest 384 442 24,100 -1,080 Descending Washington Center
14:08 37.4019 -76.5514 209° Southwest 384 442 24,000 -60 Descending Washington Center
14:09 37.3136 -76.6103 208° Southwest 378 435 24,000  Level Washington Center
14:10 37.2236 -76.6717 209° Southwest 373 429 24,000  Level Washington Center
14:11 37.1311 -76.7328 208° Southwest 373 429 24,000  Level Washington Center
14:12 37.0431 -76.7914 208° Southwest 373 429 24,000 -540 Level Washington Center
14:13 36.9506 -76.8550 209° Southwest 373 429 23,000 -1,020 Descending Washington Center
14:14 36.8661 -76.9342 217° Southwest 373 429 22,000 -540 Descending Washington Center
14:15 36.8067 -77.0419 235° Southwest 373 429 22,000  Level Washington Center
14:16 36.7511 -77.1500 237° Southwest 378 435 22,000  Level Washington Center
14:17 36.6933 -77.2575 236° Southwest 378 435 22,000  Level Washington Center
14:18 36.6394 -77.3625 237° Southwest 373 429 22,000  Level Washington Center
14:19 36.5817 -77.4725 237° Southwest 373 429 22,000 -420 Level Washington Center
14:20 36.5256 -77.5769 236° Southwest 373 429 21,200 -1,080 Descending Washington Center
14:21 36.4697 -77.6789 236° Southwest 367 422 19,900 -1,140 Descending Washington Center
14:22 36.4219 -77.7731 238° Southwest 362 417 19,000 -480 Descending Washington Center
14:23 36.3700 -77.8750 238° Southwest 362 417 19,000  Level Washington Center
14:25 36.2878 -78.0219 235° Southwest 343 395 19,000 -300 Level Washington Center
14:25 36.2639 -78.0703 239° Southwest 362 417 18,500 -1,200 Descending Washington Center
14:26 36.2272 -78.1358 235° Southwest 348 400 17,700 -1,200 Descending Washington Center
14:26 36.2056 -78.1739 235° Southwest 362 417 17,300 -1,200 Descending Washington Center
14:27 36.1683 -78.2447 237° Southwest 353 406 16,400 -1,500 Descending Washington Center
14:27 36.1467 -78.2800 233° Southwest 362 417 15,900 -1,140 Descending Washington Center
14:28 36.1250 -78.3178 235° Southwest 347 399 15,500 -1,140 Descending Washington Center
14:28 36.0886 -78.3578 222° Southwest 352 405 14,800 -1,320 Descending Washington Center
14:29 36.0478 -78.4103 226° Southwest 333 383 14,100 -1,320 Descending Washington Center
14:29 36.0178 -78.4450 223° Southwest 339 390 13,500 -1,200 Descending Washington Center
14:30 35.9856 -78.4850 225° Southwest 335 386 13,000 -1,140 Descending Washington Center
14:30 35.9594 -78.5225 229° Southwest 339 390 12,400 -1,020 Descending Washington Center
14:31 35.9189 -78.5672 222° Southwest 338 389 12,000 -420 Descending Washington Center
14:31 35.8928 -78.6022 227° Southwest 344 396 12,000  Level Washington Center
14:32 35.8497 -78.6542 224° Southwest 328 377 12,000  Level Washington Center
14:32 35.8283 -78.6792 223° Southwest 339 390 12,000  Level Washington Center
14:33 35.7897 -78.7236 223° Southwest 321 369 12,000  Level Washington Center
14:33 35.7614 -78.7636 229° Southwest 323 372 12,000  Level Washington Center
14:34 35.7292 -78.7956 219° Southwest 319 367 12,000 -540 Level Washington Center
14:34 35.7033 -78.8328 229° Southwest 318 366 11,500 -1,500 Descending Washington Center
14:35 35.6667 -78.8722 221° Southwest 316 364 10,500 -1,800 Descending Washington Center
14:35 35.6386 -78.9094 227° Southwest 318 366 9,800 -1,500 Descending Washington Center
14:36 35.5825 -78.9761 224° Southwest 313 360 8,200 -1,620 Descending Washington Center
14:37 35.5306 -79.0378 224° Southwest 285 328 6,600 -1,860 Descending Washington Center
14:38 35.4767 -79.0992 223° Southwest 254 292 4,600 -1,320 Descending Washington Center
14:39 35.4269 -79.1581 224° Southwest 248 285 4,000 3,120 Descending Washington Center
14:40 35.3792 -79.2144 224° Southwest 248 285 11,000 3,420 Climbing Washington Center
14:41 35.3297 -79.2683 222° Southwest 248 285 11,000  Level Washington Center
14:42 35.2908 -79.3122 223° Southwest 248 285 11,000  Level Washington Center